Regional Weather Roundup
Issued by NWS

Home | Current Version | Previous Version | Text Only | Print | Product List | Glossary Off
Versions: 1 2 3 4 5 6 7 8 9 10 11 12 13 14 15 16 17 18 19 20 21 22 23 24 25 26 27 28 29 30 31 32 33 34 35 36 37 38 39 40 41 42 43 44 45 46 47 48 49 50

000
ASUS43 KIND 141959
RWRIN

WEATHER ROUNDUP FOR INDIANA
NATIONAL WEATHER SERVICE INDIANAPOLIS IN
400 PM EDT SUN SEP 14 2014

NOTE: "FAIR" INDICATES FEW OR NO CLOUDS BELOW 12,000 FEET WITH NO
SIGNIFICANT WEATHER AND/OR OBSTRUCTIONS TO VISIBILITY.

* - STATION DOES NOT REPORT WEATHER SUCH AS PRECIPITATION OR FOG.

+ - STATION NOT QUALITY CONTROLLED BY THE NATIONAL WEATHER SERVICE.
    USE DATA WITH CAUTION...ESPECIALLY DEWPOINT AND RELATIVE
    HUMIDITY OBSERVATIONS.

INZ001>003-010>013-019-020-142100-
NORTHWEST INDIANA

CITY           SKY/WX    TMP DP  RH WIND       PRES   REMARKS
GARY /AIRPORT/ MOSUNNY   66  41  39 MISG      30.23F
VALPARAISO     PTSUNNY   64  42  44 VRB7      30.23F

$$

LMZ046-743>745-142100-
SOUTHERN LAKE MICHIGAN

STATION/POSITION TIME  TEMP WIND        PRES
                       AIR  DIR/SP/G
                 (UTC) (F)  (DEG/KT/KT) (MB)
MICHIGAN CITY    1900   60  190/  9/ 12   N/A

$$

INZ004-005-014>016-021>024-142100-
NORTH CENTRAL INDIANA

CITY           SKY/WX    TMP DP  RH WIND       PRES   REMARKS
ELKHART        SUNNY     63  41  45 SW9       30.24F
GOSHEN         SUNNY     64  43  46 SW9       30.24F
SOUTH BEND     MOSUNNY   64  41  42 SW8G17    30.24F

$$

INZ006>009-017-018-025>027-142100-
NORTHEAST INDIANA

CITY           SKY/WX    TMP DP  RH WIND       PRES   REMARKS
ANGOLA *+      MOSUNNY   64  45  48 VRB7      30.23F
FORT WAYNE     MOSUNNY   65  45  48 SW7       30.24F

$$

INZ028-029-035-036-043>045-051>053-142100-
WEST CENTRAL INDIANA

CITY           SKY/WX    TMP DP  RH WIND       PRES   REMARKS
GREENCASTLE +  SUNNY     64  45  48 CALM      30.24F
LAFAYETTE      SUNNY     65  45  48 NE3       30.23F
TERRE HAUTE    SUNNY     68  45  43 CALM      30.23F

$$

INZ030>032-037>040-046>048-054>057-064-065-142100-
CENTRAL INDIANA

CITY           SKY/WX    TMP DP  RH WIND       PRES   REMARKS
INDIANAPOLIS   MOSUNNY   67  45  45 VRB5      30.22F
-EAGLE CREEK   SUNNY     67  41  38 CALM      30.22F
KOKOMO *+      SUNNY     66  45  45 CALM      30.23F
MT COMFORT *+  SUNNY     68  32  26 S3        30.23F
SHELBYVILLE    SUNNY     69  44  40 VRB3      30.22F

$$

INZ033-034-041-042-049-050-058-059-142100-
EAST CENTRAL INDIANA

CITY           SKY/WX    TMP DP  RH WIND       PRES   REMARKS
MUNCIE         SUNNY     66  44  45 VRB3      30.23F

$$

INZ060-061-067>069-081>083-085>088-142100-
SOUTHWEST INDIANA

CITY           SKY/WX    TMP DP  RH WIND       PRES   REMARKS
EVANSVILLE     SUNNY     71  47  42 CALM      30.22F

$$

INZ062-063-066-070>080-084-089>092-142100-
SOUTH CENTRAL AND SOUTHEAST INDIANA

CITY           SKY/WX    TMP DP  RH WIND       PRES   REMARKS
BLOOMINGTON    SUNNY     68  44  42 CALM      30.23F

$$




USA.gov is the U.S. government's official web portal to all federal, state and local government web resources and services.